Regional Weather Roundup
Issued by NWS

Home | Current Version | Previous Version | Text Only | Print | Product List | Glossary Off
Versions: 1 2 3 4 5 6 7 8 9 10 11 12 13 14 15 16 17 18 19 20 21 22 23 24 25 26 27 28 29 30 31 32 33 34 35 36 37 38 39 40 41 42 43 44 45 46 47 48 49 50

000
ASUS43 KMKX 221200
RWRWI

WISCONSIN REGIONAL WEATHER ROUNDUP
NATIONAL WEATHER SERVICE MILWAUKEE/SULLIVAN WI
700 AM CDT WED OCT 22 2014

NOTE: "FAIR" INDICATES FEW OR NO CLOUDS BELOW 12,000 FEET WITH NO
SIGNIFICANT WEATHER AND/OR OBSTRUCTIONS TO VISIBILITY.

WIZ001-002-006>008-014>016-023>028-221300-
NORTHWEST WISCONSIN

CITY           SKY/WX    TMP DP  RH WIND       PRES   REMARKS
SUPERIOR ARPT  CLEAR     29  28  96 S3        30.23S
ASHLAND        CLEAR     28  27  96 SE3       30.27S
6HR MIN TEMP:  26; 6HR MAX TEMP:  31;

HAYWARD        CLEAR     39  33  79 S8        30.27R WCI  33
6HR MIN TEMP:  38; 6HR MAX TEMP:  42;

SIREN          CLEAR     40  34  79 SE7       30.23R
CUMBERLAND     CLEAR     36  32  87 SE7       30.25S WCI  30
RICE LAKE      CLEAR     36  33  87 SE8       30.28S WCI  30
CHETEK         CLEAR     35  33  91 SE6       30.28R WCI  30
LADYSMITH      CLEAR     32  31  96 SE5       30.31R WCI  27
EAU CLAIRE     NOT AVBL
MENOMONIE      CLEAR     34  32  92 E8        30.28S WCI  28
NEW RICHMOND   CLEAR     38  35  88 SE8       30.24S WCI  32
OSCEOLA        CLEAR     40  37  89 SE9       30.25S WCI  33
$$

WIZ003>005-009-010-017-018-221300-
NORTH CENTRAL WISCONSIN

CITY           SKY/WX    TMP DP  RH WIND       PRES   REMARKS
MANITOWISH WTR CLEAR     31  31 100 S3        30.30R
ARBOR VITAE    CLEAR     32  31  95 SE5       30.31R WCI  28
WOODRUFF       CLEAR     32  31  95 SE5       30.31R WCI  28
RHINELANDER    FAIR      25  24  96 SE3       30.33R
6HR MIN TEMP:  25; 6HR MAX TEMP:  32;

EAGLE RIVER    CLEAR     29  29 100 CALM      30.32R
LAND O LAKES   CLEAR     23  21  94 CALM      30.32S
PHILLIPS       CLEAR     31  30  96 SE3       30.28F
TOMAHAWK       CLEAR     25  24  96 CALM      30.32S
MEDFORD        CLEAR     32  31  96 SE6       30.30S WCI  27
MERRILL        CLEAR     25  24  99 CALM      30.33R
$$

WIZ029-030-035-036-043>047-221300-
CENTRAL WISCONSIN

CITY           SKY/WX    TMP DP  RH WIND       PRES   REMARKS
WAUSAU         CLEAR     30  28  92 CALM      30.33R
6HR MIN TEMP:  29; 6HR MAX TEMP:  34;

MOSINEE        NOT AVBL
MARSHFIELD     CLEAR     30  28  92 E7        30.32S WCI  23
6HR MIN TEMP:  30; 6HR MAX TEMP:  36;

STEVENS POINT  CLEAR     25  24  95 CALM      30.35R
WAUPACA        PTCLDY    31  30  96 CALM      30.35S
WAUTOMA        NOT AVBL
WISC RAPIDS    CLEAR     27  25  92 E3        30.36R
6HR MIN TEMP:  26; 6HR MAX TEMP:  31;

CAMP DOUGLAS   NOT AVBL
$$

WIZ011>013-019>022-031-037>040-048>050-221300-
NORTHEAST WISCONSIN

CITY           SKY/WX    TMP DP  RH WIND       PRES   REMARKS
ANTIGO         FOG       31  31 100 CALM      30.33R VSB 1/4
SHAWANO        PTCLDY    31  29  92 CALM      30.36R
OCONTO         PTCLDY    27  27 100 CALM      30.36R
STURGEON BAY   PTCLDY    36  30  80 SE5       30.36S WCI  32
6HR MIN TEMP:  34; 6HR MAX TEMP:  39;

GREEN BAY      FOG       32  32 100 CALM      30.36S VSB<1/4
6HR MIN TEMP:  29; 6HR MAX TEMP:  32;

MANITOWOC      NOT AVBL
APPLETON       PTCLDY    32  30  93 VRB3      30.35R
CLINTONVILLE   PTCLDY    30  28  93 CALM      30.36R
OSHKOSH        PTCLDY    32  28  85 CALM      30.34R
6HR MIN TEMP:  30; 6HR MAX TEMP:  36;

$$

WIZ032>034-041-042-053>061-221300-
SOUTHWEST WISCONSIN

CITY           SKY/WX    TMP DP  RH WIND       PRES   REMARKS
LA CROSSE      CLEAR     36  33  89 SE6       30.31R WCI  31
6HR MIN TEMP:  36; 6HR MAX TEMP:  41;

SPARTA         CLEAR     26  26  98 CALM      30.32R
VIROQUA        CLEAR     34  34 100 SE7       30.30S WCI  28
BOSCOBEL       FOG       33  32  96 CALM      30.34R VSB 1/4
6HR MIN TEMP:  30; 6HR MAX TEMP:  35;

PRAIRIE DU CHI CLEAR     36  33  88 CALM      30.32R
PLATTEVILLE    CLEAR     34  32  94 E7        30.32R WCI  28
$$

WIZ056-057-062-063-064-067-068-221300-
SOUTH CENTRAL WISCONSIN

CITY           SKY/WX    TMP DP  RH WIND       PRES   REMARKS
REEDSBURG      MOCLDY    27  26  99 CALM      30.33S FOG
BARABOO/DELLS  MOCLDY    27  26  96 CALM      30.34R FOG
LONE ROCK      FOG       30  27  86 E3        30.35R VSB 1/4
MINERAL POINT  PTCLDY    36  34  93 E6        30.31S WCI  31
MADISON        FOG       29  27  92 CALM      30.35R VSB 1/2
6HR MIN TEMP:  27; 6HR MAX TEMP:  31;

MIDDLETON      CLOUDY    29  29 100 CALM      30.34S VSB 1/4
WATERTOWN      PTCLDY    27  26  98 CALM      30.33R
MONROE         PTCLDY    36  36 100 NE5       30.32R FOG     WCI  32
JANESVILLE     NOT AVBL
$$

WIZ051-052-058>065-066-070>072-221300-
SOUTHEAST WISCONSIN

CITY           SKY/WX    TMP DP  RH WIND       PRES   REMARKS
MILWAUKEE      PTCLDY    35  32  88 CALM      30.34R
6HR MIN TEMP:  35; 6HR MAX TEMP:  40;

WAUKESHA       CLEAR     30  30 100 CALM      30.34R
MILWAUKEE/TIMM CLEAR     30  28  93 CALM      30.34R
RACINE         MOCLDY    37  34  89 CALM      30.35R
6HR MIN TEMP:  35; 6HR MAX TEMP:  41;

BURLINGTON     FOG       26  26 100 CALM      30.33R VSB 1/2
KENOSHA        PTCLDY    31  30  96 NE3       30.33S
6HR MIN TEMP:  30; 6HR MAX TEMP:  38;

FOND DU LAC    PTCLDY    27  24  89 CALM      30.34S
6HR MIN TEMP:  26; 6HR MAX TEMP:  34;

SHEBOYGAN      PTCLDY    28  26  92 N5        30.35R WCI  23
6HR MIN TEMP:  27; 6HR MAX TEMP:  33;

WEST BEND      PTCLDY    28  28 100 CALM      30.34R
JUNEAU         CLEAR     30  29  97 CALM      30.34S
$$

LSZ147-162-221300-
LAKE SUPERIOR

STATION/POSITION TIME  TEMP    WIND        PRES    WAVE
                       AIR SEA DIR/SP/G            HT/PER
                 (UTC) (F)     (DEG/KT/KT) (MB)    (FT/S)
W MID LAKE BUOY  1050   44 46  160/ 14/ 16 1025.5R   2/ 4
DEVILS ISLAND    1100   44     170/  6/  8 1025.3R
PORT WING        1100   42     150/  5/ 12 1024.0
SAXON HARBOR     1100   33      CALM  /  2 1024.7R
$$

LMZ867-665-643>646-221300-
LAKE MICHIGAN

STATION/POSITION TIME  TEMP    WIND        PRES    WAVE
                       AIR SEA DIR/SP/G            HT/PER
                 (UTC) (F)     (DEG/KT/KT) (MB)    (FT/S)
CHAMBERS ISLAND  1100   38     130/  3/  5 1028.1R
N MID LAKE BUOY  1050   44 51  140/  6/  8 1028.7R   1/ 3
NORTHPORT PIER   1100   42     160/  4/  7 1027.8S
SISTER BAY       1027             CALM       N/A
KEWAUNEE LAKESHO 1100   31     300/  4/  5 1026.8R
SHEBOYGAN LAKESH 1100   46 49  120/  9/ 10 1027.9R
PORT WASHINGTON  1100   36     270/  4/  5 1027.8R
ATWATER BUOY     1100   45     320/  6/  8 1027.7R
MILWAUKEE LAKESH 1100   41     310/  3/  4   N/A
S MID LAKE BUOY  1050   46 54  100/ 10/ 12 1027.4R   3/ 4
KENOSHA   LAKESH 1100   38     290/  5/  6 1026.8R
$$

TC  - TEMPERATURE IN CELSIUS
VSB - VISIBILITY IN STATUTE MILES
WCI - WIND CHILL INDEX
HX  - HEAT INDEX




USA.gov is the U.S. government's official web portal to all federal, state and local government web resources and services.